TimeMDT,TemperatureF,Dew PointF,Humidity,Sea Level PressureIn,VisibilityMPH,Wind Direction,Wind SpeedMPH,Gust SpeedMPH,PrecipitationIn,Events,Conditions,WindDirDegrees,DateUTC
1:15 PM,62.6,53.6,72,30.22,5.0,SSE,5.8,-,N/A,,Unknown,150,2012-09-28 19:15:00
1:35 PM,64.4,51.8,64,30.21,8.0,SE,6.9,-,N/A,,Clear,130,2012-09-28 19:35:00
1:55 PM,64.4,51.8,64,30.20,9.0,South,8.1,-,N/A,,Clear,180,2012-09-28 19:55:00
2:35 PM,66.2,50.0,56,30.19,10.0,South,6.9,-,N/A,,Clear,180,2012-09-28 20:35:00
2:55 PM,69.8,46.4,43,30.19,10.0,South,4.6,-,N/A,,Clear,170,2012-09-28 20:55:00
3:35 PM,71.6,46.4,41,30.18,10.0,ESE,5.8,-,N/A,,Clear,120,2012-09-28 21:35:00
3:55 PM,71.6,46.4,41,30.17,10.0,South,8.1,-,N/A,,Clear,170,2012-09-28 21:55:00
4:15 PM,69.8,44.6,40,30.17,10.0,SSE,6.9,-,N/A,,Partly Cloudy,160,2012-09-28 22:15:00
4:35 PM,71.6,42.8,35,30.16,10.0,South,5.8,-,N/A,,Clear,180,2012-09-28 22:35:00
4:55 PM,69.8,44.6,40,30.16,10.0,SSE,6.9,-,N/A,,Clear,150,2012-09-28 22:55:00
5:15 PM,69.8,42.8,38,30.16,10.0,South,6.9,-,N/A,,Clear,190,2012-09-28 23:15:00
5:35 PM,69.8,42.8,38,30.16,10.0,SE,4.6,-,N/A,,Clear,130,2012-09-28 23:35:00
6:15 PM,68.0,44.6,43,30.17,10.0,SE,4.6,-,N/A,,Clear,140,2012-09-29 00:15:00
6:35 PM,66.2,42.8,43,30.17,10.0,SE,4.6,-,N/A,,Clear,130,2012-09-29 00:35:00
6:55 PM,64.4,44.6,49,30.17,10.0,ESE,6.9,-,N/A,,Clear,120,2012-09-29 00:55:00
7:35 PM,62.6,44.6,52,30.17,10.0,ESE,6.9,-,N/A,,Clear,110,2012-09-29 01:35:00
7:55 PM,62.6,44.6,52,30.18,10.0,ESE,9.2,-,N/A,,Partly Cloudy,120,2012-09-29 01:55:00
8:15 PM,60.8,46.4,59,30.18,10.0,SE,8.1,-,N/A,,Clear,130,2012-09-29 02:15:00
8:35 PM,59.0,46.4,63,30.18,10.0,ESE,8.1,-,N/A,,Clear,120,2012-09-29 02:35:00
8:55 PM,59.0,46.4,63,30.19,10.0,ESE,6.9,-,N/A,,Clear,120,2012-09-29 02:55:00
9:35 PM,57.2,46.4,67,30.19,10.0,Calm,Calm,-,N/A,,Clear,0,2012-09-29 03:35:00
9:55 PM,57.2,46.4,67,30.20,10.0,Calm,Calm,-,N/A,,Clear,0,2012-09-29 03:55:00
10:35 PM,57.2,46.4,67,30.20,10.0,SE,4.6,-,N/A,,Clear,140,2012-09-29 04:35:00
10:55 PM,55.4,46.4,72,30.20,10.0,South,4.6,-,N/A,,Clear,170,2012-09-29 04:55:00
11:15 PM,55.4,46.4,72,30.19,10.0,South,4.6,-,N/A,,Clear,170,2012-09-29 05:15:00
11:35 PM,53.6,46.4,77,30.19,10.0,SSE,4.6,-,N/A,,Clear,160,2012-09-29 05:35:00
11:55 PM,53.6,46.4,77,30.19,10.0,Calm,Calm,-,N/A,,Clear,0,2012-09-29 05:55:00